Change the Weather History Date:

Tuesday, December 4, 2012

  Actual Average (KPBG) Record (KPBG)
Temperature  
Mean Temperature 44 °F 29 °F  
Max Temperature 56 °F 37 °F 63 °F (1982)
Min Temperature 32 °F 21 °F 2 °F (1976)
Degree Days  
Heating Degree Days 21 36  
Month to date heating degree days 141  
Since 1 July heating degree days 1775  
Cooling Degree Days 0 0  
Month to date cooling degree days 0  
Year to date cooling degree days 346  
Moisture  
Dew Point 42 °F    
Average Humidity 81    
Maximum Humidity 93    
Minimum Humidity 69    
Precipitation  
Precipitation 0.00 in - 1.36 in (1950)
Month to date precipitation  
Year to date precipitation  
Sea Level Pressure  
Sea Level Pressure 30.00 in    
Wind  
Wind Speed 8 mph (South)    
Max Wind Speed 18 mph    
Max Gust Speed 30 mph    
Visibility 10 miles    
Events Rain    
T = Trace of Precipitation, MM = Missing Value Source: NWS Daily Summary

Daily Weather History Graph

Daily Weather History Graph

Search for Another Location

Airport or City:

Trip Planner

Search our weather history database for the weather conditions in past years. The results will help you decide how hot, cold, wet, or windy it might be!

Date:

Astronomy

Dec. 04, 2012 Rise Set
Actual Time 7:14 AM EST 4:11 PM EST
Civil Twilight 6:40 AM EST 4:44 PM EST
Nautical Twilight 6:03 AM EST 5:21 PM EST
Astronomical Twilight 5:28 AM EST 5:57 PM EST
Moon 10:06 PM EST (12/4) 10:57 AM EST (12/4)
Length of Visible Light 10h 04m
Length of Day
8h 57m
Waning Gibbous, 69% of the Moon is Illuminated
Dec 4
Waning Gibbous
Dec 6
Last Quarter
Dec 13
New
Dec 20
First Quarter
Dec 28
Full

Hourly Weather History & Observations

Time (EST) Temp. Windchill Dew Point Humidity Pressure Visibility Wind Dir Wind Speed Gust Speed Precip Events Conditions
12:15 AM 36.9 °F 32.2 °F 32.0 °F 83% 30.22 in 10.0 mi ESE 5.8 mph - N/A   Overcast
12:35 AM 36.9 °F 32.2 °F 32.2 °F 83% 30.21 in 10.0 mi SE 5.8 mph - N/A   Overcast
12:55 AM 36.9 °F 33.1 °F 32.2 °F 83% 30.21 in 10.0 mi SSE 4.6 mph - N/A   Overcast
1:15 AM 36.9 °F 32.2 °F 32.2 °F 83% 30.20 in 10.0 mi SE 5.8 mph - N/A   Overcast
1:35 AM 36.1 °F 32.3 °F 32.0 °F 85% 30.20 in 10.0 mi SSE 4.6 mph - N/A   Overcast
1:55 AM 34.7 °F 30.6 °F 31.5 °F 88% 30.20 in 10.0 mi SE 4.6 mph - N/A   Overcast
2:15 AM 34.3 °F - 31.8 °F 90% 30.20 in 10.0 mi Calm Calm - N/A   Mostly Cloudy
2:35 AM 34.3 °F - 31.6 °F 90% 30.20 in 10.0 mi Calm Calm - N/A   Scattered Clouds
2:55 AM 34.3 °F 31.4 °F 31.8 °F 90% 30.20 in 10.0 mi SSE 3.5 mph - N/A   Clear
3:15 AM 32.9 °F 29.8 °F 30.7 °F 92% 30.18 in 10.0 mi SE 3.5 mph - N/A   Clear
3:35 AM 34.3 °F 29.2 °F 32.0 °F 91% 30.16 in 10.0 mi SE 5.8 mph - N/A   Clear
3:55 AM 35.2 °F 32.4 °F 32.9 °F 91% 30.16 in 10.0 mi SSE 3.5 mph - N/A   Clear
4:15 AM 34.2 °F 29.0 °F 31.3 °F 89% 30.15 in 10.0 mi SE 5.8 mph - N/A   Clear
4:35 AM 34.3 °F 28.4 °F 32.2 °F 92% 30.14 in 10.0 mi SSE 6.9 mph - N/A   Clear
4:55 AM 36.1 °F 33.5 °F 34.2 °F 93% 30.14 in 10.0 mi SSE 3.5 mph - N/A   Clear
5:15 AM 36.9 °F 30.1 °F 34.3 °F 91% 30.12 in 10.0 mi South 9.2 mph - N/A   Clear
5:35 AM 36.9 °F 33.1 °F 33.1 °F 86% 30.12 in 10.0 mi SSE 4.6 mph - N/A   Clear
5:55 AM 38.5 °F 33.4 °F 34.9 °F 87% 30.12 in 10.0 mi South 6.9 mph - N/A   Clear
6:15 AM 39.4 °F 35.2 °F 34.7 °F 83% 30.11 in 10.0 mi South 5.8 mph - N/A   Clear
6:35 AM 38.3 °F 31.9 °F 34.0 °F 84% 30.10 in 10.0 mi SSE 9.2 mph - N/A   Clear
6:55 AM 37.0 °F 32.4 °F 33.8 °F 88% 30.10 in 10.0 mi South 5.8 mph - N/A   Clear
7:15 AM 40.3 °F 35.5 °F 35.4 °F 83% 30.10 in 10.0 mi SSW 6.9 mph - N/A   Scattered Clouds
7:35 AM 40.6 °F 34.3 °F 35.6 °F 82% 30.09 in 10.0 mi South 10.4 mph 17.3 mph N/A   Mostly Cloudy
7:55 AM 44.1 °F 39.5 °F 37.9 °F 79% 30.09 in 10.0 mi South 8.1 mph - N/A   Mostly Cloudy
8:15 AM 45.9 °F 40.4 °F 39.0 °F 77% 30.08 in 10.0 mi SSE 11.5 mph 16.1 mph N/A   Overcast
8:35 AM 46.8 °F - 39.2 °F 75% 30.08 in 10.0 mi South 13.8 mph 21.9 mph N/A   Overcast
8:55 AM 46.8 °F - 39.2 °F 75% 30.08 in 10.0 mi South 10.4 mph 20.7 mph N/A   Drizzle
9:15 AM 46.8 °F - 40.5 °F 79% 30.08 in 10.0 mi South 12.7 mph 18.4 mph N/A   Light Drizzle
9:35 AM 46.8 °F - 40.5 °F 79% 30.07 in 10.0 mi South 12.7 mph 20.7 mph N/A   Light Drizzle
9:55 AM 46.8 °F - 42.4 °F 85% 30.06 in 7.0 mi South 9.2 mph 19.6 mph N/A Rain Light Rain
10:15 AM 47.7 °F - 42.4 °F 82% 30.06 in 10.0 mi South 11.5 mph 20.7 mph N/A   Overcast
10:35 AM 51.4 °F - 45.0 °F 79% 30.06 in 10.0 mi SSW 9.2 mph 20.7 mph N/A   Mostly Cloudy
10:55 AM 51.8 °F - 44.1 °F 75% 30.04 in 10.0 mi South 9.2 mph 23.0 mph N/A   Scattered Clouds
11:15 AM 51.8 °F - 43.5 °F 73% 30.03 in 10.0 mi South 16.1 mph 26.5 mph N/A   Clear
11:35 AM 52.0 °F - 43.9 °F 74% 30.02 in 10.0 mi South 10.4 mph 23.0 mph N/A   Scattered Clouds
11:55 AM 54.5 °F - 44.8 °F 70% 30.01 in 10.0 mi South 11.5 mph 19.6 mph N/A   Clear
12:15 PM 54.5 °F - 44.8 °F 70% 30.00 in 10.0 mi South 11.5 mph 18.4 mph N/A   Clear
12:35 PM 54.5 °F - 45.0 °F 70% 29.99 in 10.0 mi South 11.5 mph 21.9 mph N/A   Clear
12:55 PM 56.8 °F - 46.8 °F 69% 29.99 in 10.0 mi South 12.7 mph 23.0 mph N/A   Clear
1:35 PM 54.5 °F - 44.8 °F 70% 29.97 in 10.0 mi South 10.4 mph 24.2 mph N/A   Clear
1:55 PM 56.8 °F - 46.8 °F 69% 29.96 in 10.0 mi South 10.4 mph 23.0 mph N/A   Clear
2:15 PM 54.5 °F - 45.3 °F 71% 29.95 in 10.0 mi South 13.8 mph 23.0 mph N/A   Clear
2:35 PM 54.5 °F - 46.0 °F 73% 29.94 in 10.0 mi South 13.8 mph 23.0 mph N/A   Clear
2:55 PM 54.5 °F - 46.8 °F 75% 29.94 in 10.0 mi South 12.7 mph 20.7 mph N/A   Clear
3:15 PM 54.1 °F - 47.1 °F 77% 29.93 in 10.0 mi South 11.5 mph 20.7 mph N/A   Clear
3:35 PM 53.8 °F - 46.9 °F 78% 29.92 in 10.0 mi South 12.7 mph 19.6 mph N/A   Clear
3:55 PM 54.5 °F - 47.5 °F 77% 29.91 in 10.0 mi South 13.8 mph 21.9 mph N/A   Clear
4:15 PM 54.5 °F - 47.8 °F 78% 29.91 in 10.0 mi South 15.0 mph 23.0 mph N/A   Clear
4:35 PM 54.5 °F - 47.8 °F 78% 29.91 in 10.0 mi South 12.7 mph 20.7 mph N/A   Clear
4:55 PM 54.1 °F - 48.0 °F 80% 29.90 in 10.0 mi South 13.8 mph 29.9 mph N/A   Clear
5:15 PM 52.9 °F - 47.5 °F 82% 29.90 in 10.0 mi South 13.8 mph 21.9 mph N/A   Scattered Clouds
5:35 PM 53.2 °F - 48.0 °F 82% 29.89 in 10.0 mi South 17.3 mph 26.5 mph N/A   Scattered Clouds
5:55 PM 54.5 °F - 48.6 °F 80% 29.88 in 10.0 mi South 17.3 mph 27.6 mph N/A   Scattered Clouds
6:15 PM 54.5 °F - 48.2 °F 79% 29.86 in 10.0 mi South 18.4 mph 29.9 mph N/A   Scattered Clouds
6:35 PM 54.5 °F - 48.2 °F 79% 29.86 in 10.0 mi South 10.4 mph 20.7 mph N/A   Scattered Clouds
6:55 PM 54.5 °F - 48.2 °F 79% 29.86 in 10.0 mi South 15.0 mph 24.2 mph N/A   Clear
7:15 PM 54.5 °F - 48.2 °F 79% 29.84 in 10.0 mi South 11.5 mph 26.5 mph N/A   Mostly Cloudy
7:35 PM 54.5 °F - 48.2 °F 79% 29.83 in 10.0 mi South 13.8 mph 24.2 mph N/A   Scattered Clouds
7:55 PM 54.5 °F - 48.2 °F 79% 29.83 in 10.0 mi South 16.1 mph 24.2 mph N/A   Scattered Clouds
8:15 PM 54.5 °F - 48.2 °F 79% 29.82 in 10.0 mi South 12.7 mph 23.0 mph N/A   Scattered Clouds
8:35 PM 54.5 °F - 47.8 °F 78% 29.82 in 10.0 mi South 12.7 mph 20.7 mph N/A   Mostly Cloudy
8:55 PM 54.5 °F - 47.8 °F 78% 29.82 in 10.0 mi South 12.7 mph 21.9 mph N/A   Overcast
9:15 PM 54.5 °F - 47.8 °F 78% 29.83 in 10.0 mi South 11.5 mph 18.4 mph N/A   Overcast
9:35 PM 54.5 °F - 48.0 °F 79% 29.82 in 10.0 mi South 9.2 mph 19.6 mph N/A Rain Rain
9:55 PM 54.3 °F - 48.7 °F 81% 29.82 in 10.0 mi SSW 6.9 mph 16.1 mph N/A Rain Light Rain
10:15 PM 54.5 °F - 48.9 °F 81% 29.81 in 10.0 mi SSW 8.1 mph - N/A   Overcast
10:35 PM 54.5 °F - 48.7 °F 81% 29.82 in 7.0 mi WSW 6.9 mph - N/A   Overcast
10:55 PM 51.8 °F - 48.4 °F 88% 29.84 in 2.5 mi West 8.1 mph - N/A Rain Rain
11:15 PM 49.8 °F - 47.5 °F 92% 29.85 in 2.0 mi West 6.9 mph - N/A Rain Light Rain
11:35 PM 48.0 °F - 45.7 °F 92% 29.85 in 5.0 mi NW 4.6 mph - N/A Rain Light Rain
11:55 PM 46.9 °F - 44.8 °F 92% 29.85 in 5.0 mi WNW 3.5 mph - N/A   Drizzle